This is the latest recevied weather packets stored in our database for station/object JS1SZZ-13. If no packets are shown the sender has not sent any weather packets the latest 10 day(s).
| Time | Temp. | Humidity | Pressure | Rain* | Wind** | Luminosity | Snow |
|---|---|---|---|---|---|---|---|
| 1787524800 | 26.11° C | 73% | 1014.9 hPa | 0 mm | - | - | - |
| 1787523899 | 25.56° C | 78% | 1014.8 hPa | 0 mm | - | - | - |
| 1787523001 | 24.44° C | 82% | 1014.8 hPa | 0 mm | - | - | - |
| 1787522099 | 23.89° C | 88% | 1014.5 hPa | 0 mm | - | - | - |
| 1787521200 | 23.33° C | 91% | 1014.6 hPa | 0 mm | - | - | - |
| 1787520300 | 22.78° C | 93% | 1014.7 hPa | 0 mm | - | - | - |
| 1787519400 | 22.22° C | 94% | 1014.6 hPa | 0 mm | - | - | - |
| 1787518501 | 20.56° C | 92% | 1014.5 hPa | 0 mm | - | - | - |
| 1787517600 | 20.56° C | 92% | 1014.5 hPa | 0 mm | - | - | - |
| 1787516700 | 20.56° C | 92% | 1014.6 hPa | 0 mm | - | - | - |
| 1787515799 | 20.56° C | 92% | 1014.4 hPa | 0 mm | - | - | - |
| 1787514899 | 20.56° C | 92% | 1014.4 hPa | 0 mm | - | - | - |
| 1787514000 | 21.11° C | 92% | 1014.3 hPa | 0 mm | - | - | - |
| 1787513100 | 21.11° C | 92% | 1014.4 hPa | 0 mm | - | - | - |
| 1787512199 | 21.11° C | 92% | 1014.2 hPa | 0 mm | - | - | - |
| 1787511301 | 21.67° C | 92% | 1014.4 hPa | 0 mm | - | - | - |
| 1787510400 | 21.67° C | 94% | 1014.2 hPa | 0 mm | - | - | - |
| 1787509500 | 21.67° C | 94% | 1014.3 hPa | 0 mm | - | - | - |
| 1787508600 | 22.22° C | 94% | 1014.4 hPa | 0 mm | - | - | - |
| 1787507699 | 22.22° C | 94% | 1014.7 hPa | 0 mm | - | - | - |
| 1787506800 | 22.22° C | 94% | 1014.6 hPa | 0 mm | - | - | - |
| 1787505900 | 22.22° C | 93% | 1014.7 hPa | 0 mm | - | - | - |
| 1787504999 | 22.78° C | 93% | 1014.8 hPa | 0 mm | - | - | - |
| 1787504101 | 22.78° C | 93% | 1014.8 hPa | 0 mm | - | - | - |
| 1787503200 | 22.78° C | 93% | 1014.9 hPa | 0 mm | - | - | - |
* Rain latest hour (hover to see other rain measurements)
** Current wind speed in m/s (hover to see current wind gust speed)